This is the latest recevied weather packets stored in our database for station/object M0JUI-1. If no packets are shown the sender has not sent any weather packets the latest 10 day(s).
| Time | Temp. | Humidity | Pressure | Rain* | Wind** | Luminosity | Snow |
|---|---|---|---|---|---|---|---|
| 1778227840 | 14.44° C | 99% | 1017.3 hPa | 0 mm | - | 368 W/m² | - |
| 1778227539 | 13.89° C | 99% | 1016.9 hPa | 0 mm | - | 311 W/m² | - |
| 1778227241 | 13.33° C | 99% | 1017 hPa | 0 mm | - | 362 W/m² | - |
| 1778226939 | 12.78° C | 99% | 1017.1 hPa | 0 mm | - | 248 W/m² | - |
| 1778226639 | 12.22° C | 1% | 1017 hPa | 0 mm | - | 229 W/m² | - |
| 1778226340 | 12.22° C | 4% | 1017.1 hPa | 0 mm | - | 195 W/m² | - |
| 1778226041 | 12.22° C | 5% | 1017 hPa | 0 mm | - | 173 W/m² | - |
| 1778225739 | 12.22° C | 6% | 1016.9 hPa | 0 mm | - | 166 W/m² | - |
| 1778225439 | 12.22° C | 11% | 1017 hPa | 0 mm | - | 187 W/m² | - |
| 1778225139 | 12.22° C | 11% | 1016.8 hPa | 0 mm | - | 182 W/m² | - |
| 1778224840 | 11.67° C | 12% | 1017.1 hPa | 0 mm | - | 162 W/m² | - |
| 1778224539 | 11.67° C | 12% | 1016.9 hPa | 0 mm | - | 160 W/m² | - |
| 1778224239 | 11.67° C | 14% | 1016.9 hPa | 0 mm | - | 161 W/m² | - |
| 1778223939 | 11.67° C | 17% | 1016.7 hPa | 0 mm | - | 164 W/m² | - |
| 1778223639 | 11.11° C | 18% | 1016.6 hPa | 0 mm | - | 154 W/m² | - |
| 1778223339 | 11.11° C | 19% | 1016.7 hPa | 0 mm | - | 144 W/m² | - |
| 1778223039 | 11.11° C | 20% | 1016.7 hPa | 0 mm | - | 131 W/m² | - |
| 1778222739 | 10.56° C | 21% | 1016.7 hPa | 0 mm | - | 131 W/m² | - |
| 1778222439 | 10.56° C | 22% | 1016.8 hPa | 0 mm | - | 154 W/m² | - |
| 1778222133 | 10.56° C | 22% | 1016.5 hPa | 0 mm | - | 111 W/m² | - |
| 1778221828 | 10° C | 22% | 1016.5 hPa | 0 mm | - | 99 W/m² | - |
| 1778221527 | 10° C | 21% | 1016.6 hPa | 0 mm | - | 94 W/m² | - |
| 1778221228 | 10° C | 20% | 1016.4 hPa | 0 mm | - | 84 W/m² | - |
| 1778220927 | 9.44° C | 20% | 1016.7 hPa | 0 mm | - | 78 W/m² | - |
| 1778220627 | - | - | 1016.3 hPa | 0 mm | - | - | - |
* Rain latest hour (hover to see other rain measurements)
** Current wind speed in m/s (hover to see current wind gust speed)